Roatan, Honduras

3:27 AM CST on April 25, 2017 (GMT -0600)
Roatan International

Weather History for MHRO - April, 2013

Change the Weather History Date:

Friday, April 19, 2013

  Actual Average Record
Temperature  
Mean Temperature 84 °F -  
Max Temperature 89 °F 86 °F 91 °F (2006)
Min Temperature 80 °F 77 °F 68 °F (2005)
Cooling Degree Days 20    
Growing Degree Days 34 (Base 50)    
Moisture  
Dew Point 74 °F    
Average Humidity 69    
Maximum Humidity 79    
Minimum Humidity 54    
Precipitation  
Precipitation 0.00 in - - ()
Sea Level Pressure  
Sea Level Pressure 29.82 in    
Wind  
Wind Speed 17 mph ()    
Max Wind Speed 25 mph    
Max Gust Speed -    
Visibility 5.5 miles    
Events      
Averages and records for this station are not official NWS values.
T = Trace of Precipitation, MM = Missing Value Source: Averaged Metar Reports

Daily Weather History Graph

Daily Weather History Graph

Search for Another Location

Airport or City:

Trip Planner

Search our weather history database for the weather conditions in past years. The results will help you decide how hot, cold, wet, or windy it might be!

Date:

Astronomy

Apr. 19, 2013 Rise Set
Actual Time 5:28 AM CST 6:02 PM CST
Civil Twilight 5:06 AM CST 6:24 PM CST
Nautical Twilight 4:40 AM CST 6:50 PM CST
Astronomical Twilight 4:14 AM CST 7:16 PM CST
Moon 12:39 PM CST (4/19) 12:46 AM CST (4/19)
Length of Visible Light 13h 18m
Length of Day
12h 34m
Waxing Gibbous, 62% of the Moon is Illuminated
Apr 19
Waxing Gibbous
Apr 25
Full
May 2
Last Quarter
May 9
New
May 17
First Quarter

Hourly Weather History & Observations

Time (CST) Temp. Heat Index Dew Point Humidity Pressure Visibility Wind Dir Wind Speed Gust Speed Precip Events Conditions
6:00 AM 81 °F - 73 °F 71% 29.81 in 5 mi East 19.6 mph - -   Smoke
6:00 AM 80.6 °F 85.4 °F 73.4 °F 79% 29.80 in 5.0 mi East 19.6 mph - N/A   Unknown
7:00 AM 82.4 °F 88.2 °F 73.4 °F 74% 29.83 in 5.0 mi East 17.3 mph - N/A   Unknown
8:00 AM 84.2 °F 90.9 °F 73.4 °F 70% 29.83 in - East 16.1 mph - N/A   Unknown
9:00 AM 85 °F - 74 °F 64% 29.85 in 5 mi East 17.3 mph - -   Smoke
9:00 AM 86.0 °F 95.1 °F 75.2 °F 70% 29.83 in - East 17.3 mph - N/A   Unknown
10:00 AM 86.0 °F 95.1 °F 75.2 °F 70% 29.83 in 6.2 mi East 16.1 mph - N/A   Unknown
11:00 AM 86.0 °F 93.4 °F 73.4 °F 66% 29.83 in - East 18.4 mph - N/A   Unknown
12:00 PM 87 °F - 73 °F 54% 29.84 in 6 mi East 19.6 mph - -   Smoke
12:00 PM 87.8 °F 95.6 °F 73.4 °F 62% 29.83 in - East 19.6 mph - N/A   Clear
1:00 PM 89.6 °F 98.2 °F 73.4 °F 59% 29.83 in - East 18.4 mph - N/A   Clear
2:00 PM 89.6 °F 96.2 °F 71.6 °F 55% 29.80 in - East 21.9 mph - N/A   Clear
3:00 PM 87.8 °F 93.8 °F 71.6 °F 58% 29.80 in - ENE 21.9 mph - N/A   Clear
4:00 PM 86.0 °F 93.4 °F 73.4 °F 66% 29.77 in - ENE 25.3 mph - N/A   Clear
5:00 PM 84.2 °F 92.3 °F 75.2 °F 74% 29.80 in - ENE 25.3 mph - N/A   Clear
6:00 PM 82 °F - 75 °F 73% 29.82 in 6 mi ENE 21.9 mph - -   Smoke
6:00 PM 82.4 °F 89.5 °F 75.2 °F 79% 29.80 in - ENE 21.9 mph - N/A   Clear
7:00 PM 82.4 °F 89.5 °F 75.2 °F 79% 29.83 in - East 23.0 mph - N/A   Clear
8:00 PM 82.4 °F 89.5 °F 75.2 °F 79% 29.86 in - East 23.0 mph - N/A   Clear